Miscellaneous Local Product
Issued by NWS Hastings, NE

Home | Current Version | Previous Version | Text Only | Print | Product List | Glossary Off
Versions: 1 2 3 4 5 6 7 8 9 10 11 12 13 14 15 16 17 18 19 20 21 22 23 24 25 26 27 28 29 30 31 32 33 34 35 36 37 38 39 40 41 42 43 44 45 46 47 48 49 50

671
AXUS43 KGID 122102
MISGRI

GID CWA HOURLY WEATHER ROUNDUP
NATIONAL WEATHER SERVICE HASTINGS NE
300 PM CST TUE DEC 12 2017

NOTE: "FAIR" INDICATES FEW OR NO CLOUDS BELOW 12,000 FEET WITH NO
SIGNIFICANT WEATHER AND/OR OBSTRUCTIONS TO VISIBILITY.

...SOUTH CENTRAL NEBRASKA...

CITY           SKY/WX    TMP DP  RH WIND       PRES   REMARKS
GRAND ISLAND   SUNNY     52  21  29 W10       30.08F
KEARNEY        SUNNY     51  14  22 W8        30.08F
HASTINGS       SUNNY     51  20  29 W9G17     30.09F
ORD            SUNNY     51  18  27 SW9       30.04F
YORK           SUNNY     46  27  46 W12       30.10F
AURORA         SUNNY     50  23  35 W10       30.08F
LEXINGTON      SUNNY     54  20  26 W6        30.08F
HOLDREGE       SUNNY     49  24  37 W10       30.09F
HEBRON         SUNNY     50  25  37 W12       30.12F

...NEBRASKA PANHANDLE...

CITY           SKY/WX    TMP DP  RH WIND       PRES   REMARKS
CHADRON        SUNNY     65  21  18 W12       30.02F
ALLIANCE       SUNNY     65  17  15 NW16      30.06F
SCOTTSBLUFF    SUNNY     65  16  15 W16G22    30.10F
SIDNEY         SUNNY     65  15  14 NW21G29   30.12F

...WESTERN AND NORTH CENTRAL NEBRASKA...

CITY           SKY/WX    TMP DP  RH WIND       PRES   REMARKS
VALENTINE      SUNNY     60  18  19 W15       29.99F
AINSWORTH      SUNNY     56  21  25 W10       30.00F
ONEILL         SUNNY     52  20  29 SW10      30.00F
BROKEN BOW     SUNNY     54  16  22 SW10      30.05F
IMPERIAL       SUNNY     64  17  16 NW9       30.10F
NORTH PLATTE   SUNNY     59  21  23 W9        30.07F
MCCOOK         SUNNY     57  21  24 W10       30.10F

...EASTERN NEBRASKA...

CITY           SKY/WX    TMP DP  RH WIND       PRES   REMARKS
NORFOLK        SUNNY     46  27  47 W14       30.02F
SO SIOUX CITY  SUNNY     43  29  57 SW12      30.04F
TEKAMAH        SUNNY     42  27  55 SW12      30.08F
ALBION         SUNNY     50  24  36 W8        30.04F
OMAHA EPPLEY   MOSUNNY   39  24  55 S5        30.11F
OFFUTT AFB     SUNNY     42  26  53 SW5       30.11F
MILLARD        SUNNY     42  28  58 S5        30.11F
LINCOLN        SUNNY     48  27  44 SW13      30.11F
NEBRASKA CITY  SUNNY     42  29  59 SW9       30.13F
BEATRICE       SUNNY     48  28  47 W9        30.12F
FALLS CITY     PTSUNNY   41  24  51 W10       30.15F

...NORTHERN KANSAS...

CITY           SKY/WX    TMP DP  RH WIND       PRES   REMARKS
GOODLAND       SUNNY     65  17  15 NW8       30.14F
HILL CITY      SUNNY     61  20  20 VRB7      30.13F
NORTON         CLEAR     57  10  15 W9        30.11F
PHILLIPSBURG   SUNNY     57  18  21 SW7       30.12F
SMITH CENTER   SUNNY     52  23  32 SW8       30.13F
HAYS           SUNNY     59  19  21 W10       30.14F
RUSSELL        SUNNY     56  25  30 SW12      30.13F
CONCORDIA      SUNNY     48  26  42 W8        30.14F
SALINA         SUNNY     54  26  34 SW9       30.17F
TOPEKA         PTSUNNY   44  26  49 W9        30.19F



USA.gov is the U.S. government's official web portal to all federal, state and local government web resources and services.